Retour au catalogue

STARLINK-11176

ActifCommunicationsVLEO
NORAD 60060·PAYLOAD·🇺🇸 United States

Lancé Jun 19, 2024 depuis Vandenberg Space Force Base

Loading…

Prochains Passages (prochaines 24 heures)

TLE

FraisSource: CelesTrak SupGP

Époque: Sep 14, 2026, 13:57 UTC

1 60060C 24113B   26257.58173611  .00025219  00000+0  20782-3 0  2574
2 60060  53.1569 340.1174 0001184  76.6754  75.0734 15.69687390    13

Suivez STARLINK-11176 en temps réel avec AllMySat

Download on the App Store